Location: Ailly
(50.0793°N, 1.9944°E)
Time: 05:59:08
(UTC+00:00)

TIMED - Pass Details

Date: 15 January 2026
Orbit: 581 x 584 km, 74.1° (Epoch: 17 February)

Event Time Altitude Azimuth Distance (km) Brightness Sun altitude
Rises 05:58:19 0° 213° (SSW) 2,790 7.7 -16.5°
Reaches altitude 10° 06:00:33 10° 217° (SW) 1,895 6.8 -16.2°
Maximum altitude 06:04:43 58° 297° (WNW) 684 4.4 -15.5°
Drops below altitude 10° 06:08:56 10° 17° (NNE) 1,911 7.1 -14.9°
Sets 06:11:11 0° 22° (NNE) 2,816 8.0 -14.5°
